Terug naar catalogus

STARLINK-5827

ActiefCommunicatieVLEO
NORAD 57066·PAYLOAD·🇺🇸 United States

Gelanceerd Jun 22, 2023 vanaf Vandenberg Space Force Base

Loading…

Volgende Passages (komende 24 uur)

TLE

VersSource: CelesTrak SupGP

Epoch: Sep 14, 2026, 21:53 UTC

1 57066C 23088U   26257.91229167 -.00003538  00000+0 -12828-3 0  2575
2 57066  42.9997 121.9573 0001303 219.6334  96.4077 15.27544396    19

Volg STARLINK-5827 in realtime met AllMySat

Download on the App Store